Tracking 29892 objects as of 21-Nov-2024
HD Live streaming from Space Station
objects crossing your sky now

STARLINK-3282

Track STARLINK-3282 now!
10-day predictions
STARLINK-3282 is classified as:


NORAD ID: 50177
Int'l Code: 2021-125X
Perigee: 546.0 km
Apogee: 547.8 km
Inclination: 53.2 °
Period: 95.4 minutes
Semi major axis: 6917 km
RCS: Unknown
Launch date: December 18, 2021
Source: United States (US)
Launch site: AIR FORCE WESTERN TEST RANGE (AFWTR)
Your satellite tracking list
Your tracking list is empty




NASA's NSSDC Master Catalog

Two Line Element Set (TLE):
1 50177U 21125X   24325.15517602  .00000295  00000-0  36626-4 0  9997
2 50177  53.2161 219.3850 0001303  88.5995 271.5146 15.08835718164967
Source of the keplerian elements: AFSPC